Weather WX

World > North America > United States > North Dakota

Bonetraill, North Dakota Regional Weather

Lat: 48.42N, Lon: 103.84W
Wx Zone: NDZ009
Warning FLW WEATHER ALERT - (More Info. Click Here) Warning
Feedback

Bonetraill, ND Regional Weather

Expires:201907171800;;204958
ASUS43 KBIS 171710
RWRND 

NORTH DAKOTA REGIONAL WEATHER ROUNDUP
NATIONAL WEATHER SERVICE BISMARCK ND
1200 PM CDT WED JUL 17 2019

NOTE: "FAIR" INDICATES FEW OR NO CLOUDS BELOW 12,000 FEET WITH NO
SIGNIFICANT WEATHER AND/OR OBSTRUCTIONS TO VISIBILITY.



NDZ001>003-009>011-017-171800-
NORTHWEST NORTH DAKOTA
  
CITY           SKY/WX    TMP DP  RH WIND       PRES   REMARKS
WILLISTON      MOSUNNY   79  64  60 S6        29.78S                  
MINOT          MOSUNNY   75  63  66 W10G21    29.73F                  
MINOT AFB      MOSUNNY   76  65  68 W10       29.72F                  
$$
 

SKY/WX - Weather  TMP - Temperature  DP - Dew Point  RH - Relative Humidity
WIND - Wind Direction/Speed PRES - Barometric Pressure VSB - Visibility
WCI - Wind Chill Index E13G22 Wind - East Wind 13 mph/Gusts of 22 mph